Погода в Байрамауле

Россия / Республика Дагестан     43°17′46″N   46°43′39″E
темп.,
°C
ветер,
м/с
пор.,
м/с
влажн.,
%
обл.,
%
осадки,
мм/ч
давл.,
гПа
погр.,
м
9 мая, вс
вс900:00+13в12904 0.1 101121
03:00+12в2394100 0.1 100949
06:00+13всв1290100 0.0 100899
09:00+17ссз2176100 0.0 1008431
12:00+22сз446522 0.0 1006994
15:00+23зсз5658100 0.1 10051273
18:00+17з151879100 0.7 1010899
21:00+9з142086100 2.0 10181030
10 мая, пн
пн1000:00+7з141887100 1.4 10201063
03:00+8з121783100 1.6 10201131
06:00+9зюз111672100 0.0 10211274
09:00+10зюз91274100 2.1 10231154
12:00+14зсз8114883 0.4 10202246
15:00+16сз574111 0.4 10192200
18:00+14з225510 0.0 101952
21:00+9ююз336310 0.0 102036
11 мая, вт
вт1100:00+8з126470 0.0 102015
03:00+7зюз34715 0.0 102055
06:00+9з23745 0.0 1020117
09:00+14в36565 0.0 10191079
12:00+17в884647 0.0 10171802
15:00+17в994959 0.0 10171293
18:00+13в79623 0.0 1018511
21:00+10вюв47781 0.0 1019121
12 мая, ср
ср1200:00+9вюв347815 0.0 101862
03:00+8вюв33830 0.0 101842
06:00+10вюв37770 0.0 1018220
09:00+16в67510 0.0 1017938
12:00+19в76500 0.0 10161189
15:00+18в66550 0.0 1016951
18:00+15в46690 0.0 1016347
21:00+11вюв22840 0.0 101727
13 мая, чт
чт1300:00+10вюв11870 0.0 101611
03:00+10вюв11890 0.0 101610
06:00+12в12830 0.0 101783
09:00+18всв33640 0.0 1017528
12:00+23всв45525 0.0 1015898
15:00+23в66520 0.0 1015751
18:00+18в57710 0.0 1016285
21:00+12в22890 0.0 101731